Lexington Weather

Lexington, Massachusetts, USA

70°F
8/17/2022 6:38pm 
  • Lexington Conditions: Overcast
  • Temperature: 69.8°F / 21.0°CColder 0.2°F than last hour.
  • Dew Point: 58.3°FDecreased 0.2°Fsince last hour.
  • Relative Humidity: 67
  • Wind: Calm, 10-min avg: Calm, gust: 3 mph
  • Barometer: 29.85 in Steady
  • Visibility: 10 miles
  • Rain Today: 0.00 in
  •   

Regional Weather Roundup
for Boston, MA

        
000
ASUS41 KBOX 131910
RWRBOX

REGIONAL WEATHER ROUNDUP
NATIONAL WEATHER SERVICE BOSTON/NORTON MA
300 PM EDT SAT AUG 13 2022

NOTE:  "FAIR" INDICATES FEW OR NO CLOUDS BELOW 12,000 FEET WITH NO 
SIGNIFICANT WEATHER AND/OR OBSTRUCTIONS TO VISIBILITY.

MAZALL-132000-
EASTERN MASSACHUSETTS
  
CITY           SKY/WX    TMP DP  RH WIND       PRES   REMARKS
BOSTON         MOSUNNY   73  58  59 SE10      30.06F                  
BEVERLY        SUNNY     77  49  37 NE9       30.04F                  
LAWRENCE       CLOUDY    77  52  41 NE8       30.07S                  
BEDFORD        PTSUNNY   76  50  40 NE7       30.04F                  
BLUE HILL      NOT AVBL                                               
NORWOOD        MOSUNNY   76  51  41 VRB7      30.04F                  
MARSHFIELD     MOSUNNY   70  59  68 NE8       30.06F                  
PLYMOUTH       SUNNY     73  58  59 NE12G18   30.06S                  
TAUNTON          N/A    N/A N/A N/A MISG      30.03F                  
NEW BEDFORD    PTSUNNY   77  52  41 VRB7      30.03S                  
$$

MAZALL-132000-
CAPE COD AND THE ISLANDS
  
CITY           SKY/WX    TMP DP  RH WIND       PRES   REMARKS
FALMOUTH       SUNNY     72  57  60 NE16      30.06S                  
HYANNIS        SUNNY     74  60  61 N12G21    30.03S                  
CHATHAM        CLOUDY    73  61  65 VRB7      30.04S                  
NANTUCKET      MOSUNNY   73  63  70 N14       30.03S                  
MARTHAS VNYRD  SUNNY     77  58  51 N12       30.03F                  
$$
 
MAZALL-132000-
CENTRAL AND WESTERN MASSACHUSETTS
  
CITY           SKY/WX    TMP DP  RH WIND       PRES   REMARKS
WORCESTER      CLOUDY    71  47  42 N5        30.08F                  
FITCHBURG      CLOUDY    75  43  31 N6        30.07F                  
ORANGE         PTSUNNY   77  48  35 N10G18    30.09F                  
SPRINGFIELD    PTSUNNY   77  47  34 N10G17    30.04F                  
WESTFIELD      PTSUNNY   79  48  33 N9        30.07F                  
NORTH ADAMS    CLOUDY    70  53  54 VRB3      30.10F                  
PITTSFIELD     CLOUDY    72  50  45 VRB6      30.10F                  
$$
 
RIZALL-132000-
RHODE ISLAND
  
CITY           SKY/WX    TMP DP  RH WIND       PRES   REMARKS
PROVIDENCE     PTSUNNY   77  48  35 VRB6      30.04F                  
NEWPORT        SUNNY     77  50  38 N8        30.04F                  
BLOCK ISLAND   MOSUNNY   73  55  53 SE6       30.06S                  
SMITHFIELD     PTSUNNY   75  49  39 NE9       30.06S                  
WESTERLY       MOSUNNY   80  48  32 VRB6      30.04F                  
$$
 
CTZALL-132000-
CONNECTICUT
  
CITY           SKY/WX    TMP DP  RH WIND       PRES   REMARKS
BRADLEY INTL   PTSUNNY   76  49  38 N7        30.07F                  
HARTFORD       PTSUNNY   78  49  35 N10G17    30.06F                  
BRIDGEPORT     CLOUDY    74  51  44 SW7       30.07F                  
DANBURY        CLOUDY    76  48  37 N10       30.09F                  
GROTON         PTSUNNY   79  54  41 VRB5      30.03F                  
NEW HAVEN      MOSUNNY   81  50  33 N9        30.06F                  
CHESTER        FAIR      79  46  31 N14G21    30.07F                  
MERIDEN        CLOUDY    78  49  35 N7        30.07S                  
WILLIMANTIC    PTSUNNY   77  49  37 NW9       30.06S                  
OXFORD         CLOUDY    72  49  44 VRB7      30.10F                  
$$

MEZ002-015-021-024-NHZ003-005-008-011-012-014-VTZ005-008-132000-
NORTHERN NEW ENGLAND
  
CITY           SKY/WX    TMP DP  RH WIND       PRES   REMARKS
PORTLAND ME    CLOUDY    75  53  46 SE6       30.06F                  
BANGOR ME      PTSUNNY   78  54  43 N8        30.04F                  
CONCORD NH     PTSUNNY   73  49  42 N12       30.07S                  
MANCHESTER NH  PTSUNNY   76  48  37 NE6       30.05F                  
NASHUA NH      CLOUDY    76  49  38 NE7       30.06F                  
PORTSMOUTH NH  PTSUNNY   75  51  42 E5        30.05F                  
JAFFREY NH     CLOUDY    73  48  41 VRB5      30.10S                  
KEENE NH       CLOUDY    72  52  49 N12         N/A                   
BURLINGTON VT  MOSUNNY   77  46  33 N8        30.11F                  
MT. WASHINGTON CLOUDY    45  43  93 NE6         N/A  VSB 5/16         
$$

NYZ052-076-132000-
EASTERN NEW YORK
  
CITY           SKY/WX    TMP DP  RH WIND       PRES   REMARKS
ALBANY         PTSUNNY   77  51  40 NW5       30.09F                  
NEW YORK CITY  PTSUNNY   77  46  33 N7        30.07F                  
$$
 
ANZALL-132000-
MARINE OBSERVATIONS
  
STATION/POSITION TIME  TEMP    WIND        PRES    VSBY  WAVE
                       AIR SEA DIR/SP/G                  HT/PER
                 (UTC) (F)     (DEG/KT/KT) (MB)    (MI)  (FT/S)
BOSTON BUOY      NOT AVBL
BUZZARDS BAY     NOT AVBL
NANTUCKET SOUND  NOT AVBL
MASS BAY-STELLWA NOT AVBL
ISLE OF SHOALS   NOT AVBL
S OF BLOCK IS    NOT AVBL
$$

......................KEY.........................
  SKY/WX - SKY CONDITION/PRESENT WEATHER
  TMP    - TEMPERATURE IN FAHRENHEIT
  DWPT   - DEWPOINT IN FAHRENHEIT
  RH     - RELATIVE HUMIDITY IN PERCENT
  WIND   - DIRECTION AND SPEED IN MPH
  PRES   - MEAN SEA LEVEL PRESSURE IN INCHES OF HG
  WCI    - WIND CHILL INDEX
  VSB    - VISIBILITY IN MILES
  HX     - HEAT INDEX
  TC     - TEMPERATURE IN CELSIUS
  VRB    - VARIABLE WIND DIRECTION
  N/A    - NOT AVAILABLE
  
      

Other recent Regional Weather Roundups

Wed Aug 17, 6:10pm

Wed Aug 17, 5:10pm

Wed Aug 17, 4:10pm

Wed Aug 17, 3:10pm

Wed Aug 17, 2:10pm

Wed Aug 17, 1:10pm

Wed Aug 17, 12:10pm

Wed Aug 17, 11:10am

Wed Aug 17, 10:10am

Wed Aug 17, 9:10am

Wed Aug 17, 8:10am

Wed Aug 17, 7:10am

Wed Aug 17, 6:10am

Wed Aug 17, 5:10am

Wed Aug 17, 4:10am

Wed Aug 17, 3:10am

Wed Aug 17, 2:10am

Wed Aug 17, 1:10am

Wed Aug 17, 12:10am

Tue Aug 16, 11:10pm

Tue Aug 16, 10:10pm

Tue Aug 16, 9:10pm

Tue Aug 16, 8:10pm

Tue Aug 16, 7:10pm

Tue Aug 16, 6:10pm

Tue Aug 16, 5:10pm

Tue Aug 16, 4:10pm

Tue Aug 16, 3:10pm

Tue Aug 16, 2:10pm

Tue Aug 16, 1:10pm

Tue Aug 16, 12:10pm

Tue Aug 16, 11:10am

Tue Aug 16, 10:10am

Tue Aug 16, 9:10am

Tue Aug 16, 8:10am

Tue Aug 16, 7:10am

Tue Aug 16, 6:10am

Tue Aug 16, 5:10am

Tue Aug 16, 4:10am

Tue Aug 16, 3:10am

Tue Aug 16, 2:10am

Tue Aug 16, 1:10am

Tue Aug 16, 12:10am

Mon Aug 15, 11:10pm

Mon Aug 15, 10:10pm

Mon Aug 15, 9:10pm

Mon Aug 15, 8:10pm

Mon Aug 15, 7:10pm

Mon Aug 15, 6:10pm

Mon Aug 15, 5:10pm

Mon Aug 15, 4:10pm

Mon Aug 15, 3:10pm

Mon Aug 15, 2:10pm

Mon Aug 15, 1:10pm

Mon Aug 15, 12:10pm

Mon Aug 15, 11:10am

Mon Aug 15, 10:10am

Mon Aug 15, 9:10am

Mon Aug 15, 8:10am

Mon Aug 15, 7:10am

Mon Aug 15, 6:10am

Mon Aug 15, 5:10am

Mon Aug 15, 4:10am

Mon Aug 15, 3:10am

Mon Aug 15, 2:10am

Mon Aug 15, 1:10am

Mon Aug 15, 12:10am

Sun Aug 14, 11:10pm

Sun Aug 14, 10:10pm

Sun Aug 14, 9:10pm

Sun Aug 14, 8:10pm

Sun Aug 14, 7:10pm

Sun Aug 14, 6:10pm

Sun Aug 14, 5:10pm

Sun Aug 14, 4:10pm

Sun Aug 14, 3:10pm

Sun Aug 14, 2:10pm

Sun Aug 14, 1:10pm

Sun Aug 14, 12:10pm

Sun Aug 14, 11:10am

Sun Aug 14, 10:10am

Sun Aug 14, 9:10am

Sun Aug 14, 8:10am

Sun Aug 14, 7:10am

Sun Aug 14, 6:10am

Sun Aug 14, 5:10am

Sun Aug 14, 4:10am

Sun Aug 14, 3:10am

Sun Aug 14, 2:10am

Sun Aug 14, 1:10am

Sun Aug 14, 12:10am

Sat Aug 13, 11:10pm

Sat Aug 13, 10:10pm

Sat Aug 13, 9:10pm

Sat Aug 13, 8:10pm

Sat Aug 13, 7:10pm

Sat Aug 13, 6:10pm

Sat Aug 13, 5:10pm

Sat Aug 13, 4:10pm

Sat Aug 13, 2:10pm

Sat Aug 13, 1:10pm

Sat Aug 13, 12:10pm

Sat Aug 13, 11:10am

Sat Aug 13, 10:10am

Sat Aug 13, 9:10am

Sat Aug 13, 8:10am

Sat Aug 13, 7:10am

Sat Aug 13, 6:10am

Sat Aug 13, 5:10am

Sat Aug 13, 4:10am

Sat Aug 13, 3:10am

Sat Aug 13, 2:10am

Sat Aug 13, 1:10am

Sat Aug 13, 12:10am

Fri Aug 12, 11:10pm

Fri Aug 12, 10:10pm

Fri Aug 12, 9:10pm

Fri Aug 12, 8:10pm

Fri Aug 12, 7:10pm

Fri Aug 12, 6:10pm

Fri Aug 12, 5:10pm

Fri Aug 12, 4:10pm

Fri Aug 12, 3:10pm

Fri Aug 12, 2:10pm

Fri Aug 12, 1:10pm

Fri Aug 12, 12:10pm

Fri Aug 12, 11:10am

Fri Aug 12, 10:10am

Fri Aug 12, 9:10am

Fri Aug 12, 8:10am

Fri Aug 12, 7:10am

Fri Aug 12, 6:10am

Fri Aug 12, 5:10am

Fri Aug 12, 4:10am

Fri Aug 12, 3:10am

Fri Aug 12, 2:10am

Fri Aug 12, 1:10am

Fri Aug 12, 12:10am

Thu Aug 11, 11:10pm

Thu Aug 11, 10:10pm

Thu Aug 11, 9:10pm

Thu Aug 11, 8:10pm

Thu Aug 11, 7:10pm

Thu Aug 11, 6:10pm

Thu Aug 11, 5:10pm

Thu Aug 11, 4:10pm

Thu Aug 11, 3:10pm

Thu Aug 11, 2:10pm

Thu Aug 11, 1:10pm

Thu Aug 11, 12:10pm

Thu Aug 11, 11:10am

Thu Aug 11, 10:10am

Thu Aug 11, 9:10am

Thu Aug 11, 8:10am

Thu Aug 11, 7:10am

Thu Aug 11, 6:10am

Thu Aug 11, 5:10am

Thu Aug 11, 4:10am

Thu Aug 11, 3:10am

Thu Aug 11, 2:10am

Thu Aug 11, 1:10am

Thu Aug 11, 12:10am

Wed Aug 10, 11:10pm

Wed Aug 10, 10:10pm

Wed Aug 10, 9:10pm

Wed Aug 10, 8:10pm

Wed Aug 10, 7:10pm

Meta data:

ID: e9cfc255-5553-49be-94bb-50c8b8f16266
Link: https://api.weather.gov/products/e9cfc255-5553-49be-94bb-50c8b8f16266